Borden/Military, Ontario

5:26 PM EST on December 06, 2016 (GMT -0500)
Borden

Weather History for CYBN - October, 2012

Change the Weather History Date:

Sunday, October 14, 2012

  Actual Average Record
Temperature  
Mean Temperature 54 °F -  
Max Temperature 67 °F 55 °F 74 °F (2014)
Min Temperature 40 °F 38 °F 29 °F (2016)
Degree Days  
Heating Degree Days 12    
Growing Degree Days 4 (Base 50)    
Moisture  
Dew Point 50 °F    
Average Humidity 88    
Maximum Humidity 94    
Minimum Humidity 70    
Precipitation  
Precipitation 0.08 in - - ()
Sea Level Pressure  
Sea Level Pressure 29.77 in    
Wind  
Wind Speed 6 mph ()    
Max Wind Speed 22 mph    
Max Gust Speed 34 mph    
Visibility 3.6 miles    
Events Rain    
Averages and records for this station are not official NWS values.
T = Trace of Precipitation, MM = Missing Value Source: Averaged Metar Reports

Daily Weather History Graph

Daily Weather History Graph

Search for Another Location

Airport or City:

Trip Planner

Search our weather history database for the weather conditions in past years. The results will help you decide how hot, cold, wet, or windy it might be!

Date:

Astronomy

Oct. 14, 2012 Rise Set
Actual Time 7:33 AM EDT 6:36 PM EDT
Civil Twilight 7:04 AM EDT 7:05 PM EDT
Nautical Twilight 6:31 AM EDT 7:39 PM EDT
Astronomical Twilight 5:57 AM EDT 8:12 PM EDT
Moon 6:30 AM EDT (10/14) 5:54 PM EDT (10/14)
Length of Visible Light 12h 00m
Length of Day
11h 02m
Waning Crescent, 1% of the Moon is Illuminated
Oct 14
Waning Crescent
Oct 15
New
Oct 21
First Quarter
Oct 29
Full
Nov 6
Last Quarter

Hourly Weather History & Observations

Time (EDT) Temp. Windchill Dew Point Humidity Pressure Visibility Wind Dir Wind Speed Gust Speed Precip Events Conditions
12:00 AM 42.8 °F 37.0 °F 41.0 °F 93% 29.88 in 2.5 mi SSE 10.4 mph - N/A Rain Light Rain
12:04 AM 42.8 °F 37.0 °F 41.0 °F 93% 29.86 in 3.0 mi SSE 10.4 mph - N/A Rain Light Rain
12:12 AM 42.8 °F 38.0 °F 41.0 °F 93% 29.86 in 2.4 mi SSE 8.1 mph - N/A Rain Light Rain
12:36 AM 44.6 °F 40.7 °F 41.0 °F 87% 29.86 in 2.5 mi SSE 6.9 mph - N/A   Overcast
12:41 AM 44.6 °F 40.7 °F 41.0 °F 87% 29.85 in 3.5 mi SE 6.9 mph - N/A   Overcast
12:42 AM 44.6 °F 40.7 °F 41.0 °F 87% 29.85 in 3.5 mi SSE 6.9 mph - N/A   Overcast
1:00 AM 44.6 °F 40.7 °F 41.0 °F 87% 29.86 in 3.0 mi SE 6.9 mph - N/A   Overcast
1:23 AM 44.6 °F 40.2 °F 42.8 °F 93% 29.84 in 3.0 mi SSE 8.1 mph - N/A   Overcast
1:37 AM 44.6 °F 40.7 °F 42.8 °F 93% 29.83 in 3.0 mi SSE 6.9 mph - N/A Rain Light Rain
1:56 AM 46.4 °F 43.5 °F 42.8 °F 87% 29.83 in 4.0 mi SSE 5.8 mph - N/A   Overcast
2:00 AM 46 °F - 43 °F 86% 29.85 in 4 mi SSE 5.8 mph - -   Overcast
2:00 AM 46.4 °F 43.5 °F 42.8 °F 87% 29.85 in 4.0 mi SSE 5.8 mph - N/A   Overcast
2:08 AM 46.4 °F 43.5 °F 42.8 °F 87% 29.83 in 3.5 mi SE 5.8 mph - N/A   Mostly Cloudy
2:14 AM 46.4 °F 42.9 °F 42.8 °F 87% 29.83 in 3.5 mi SE 6.9 mph - N/A   Overcast
2:27 AM 46.4 °F 43.5 °F 42.8 °F 87% 29.82 in 4.0 mi SE 5.8 mph - N/A   Overcast
2:41 AM 46.4 °F 43.5 °F 42.8 °F 87% 29.82 in 3.5 mi SE 5.8 mph - N/A   Overcast
3:15 AM 46.4 °F 44.3 °F 44.6 °F 93% 29.81 in 3.5 mi SE 4.6 mph - N/A   Overcast
3:35 AM 46.4 °F 45.2 °F 44.6 °F 93% 29.80 in 3.5 mi SE 3.5 mph - N/A   Overcast
3:54 AM 48.2 °F - 44.6 °F 87% 29.81 in 4.0 mi SE 4.6 mph - N/A   Overcast
4:00 AM 48.2 °F - 44.6 °F 87% 29.83 in 4.0 mi ESE 5.8 mph - N/A   Overcast
4:26 AM 48.2 °F - 46.4 °F 93% 29.81 in 5.0 mi ESE 4.6 mph - N/A   Overcast
5:00 AM 48.2 °F - 46.4 °F 93% 29.84 in 4.0 mi ESE 2.3 mph - N/A   Overcast
5:32 AM 50.0 °F - 46.4 °F 87% 29.82 in 2.5 mi Calm Calm - N/A   Overcast
5:50 AM 50.0 °F - 48.2 °F 94% 29.83 in 1.4 mi Calm Calm - N/A   Overcast
6:00 AM 50.0 °F - 48.2 °F 94% 29.85 in 1.1 mi Calm Calm - N/A   Overcast
6:05 AM 50.0 °F - 48.2 °F 94% 29.82 in 1.0 mi Calm Calm - N/A   Overcast
6:10 AM 50.0 °F - 48.2 °F 94% 29.83 in 1.0 mi SSE 2.3 mph - N/A   Overcast
6:23 AM 50.0 °F - 48.2 °F 94% 29.83 in 1.0 mi Calm Calm - N/A   Overcast
6:26 AM 50.0 °F - 48.2 °F 94% 29.83 in 1.0 mi NNW 4.6 mph - N/A   Unknown
6:39 AM 50.0 °F - 46.4 °F 87% 29.84 in 1.0 mi North 3.5 mph - N/A   Unknown
6:50 AM 50.0 °F - 48.2 °F 94% 29.84 in 1.0 mi Calm Calm - N/A   Overcast
6:58 AM 50.0 °F - 48.2 °F 94% 29.83 in 1.0 mi Calm Calm - N/A   Overcast
7:00 AM 50.0 °F - 48.2 °F 94% 29.86 in 1.0 mi Calm Calm - N/A   Overcast
7:07 AM 50.0 °F - 48.2 °F 94% 29.83 in 0.8 mi Calm Calm - N/A   Overcast
7:08 AM 50.0 °F - 48.2 °F 94% 29.83 in 0.8 mi Calm Calm - N/A   Overcast
7:09 AM 50.0 °F - 48.2 °F 94% 29.83 in 0.8 mi Calm Calm - N/A Rain Light Rain
7:25 AM 50.0 °F - 48.2 °F 94% 29.84 in 0.8 mi Calm Calm - N/A Rain Light Rain
7:31 AM 50.0 °F - 48.2 °F 94% 29.84 in 0.6 mi SW 2.3 mph - N/A Rain Light Rain
7:37 AM 50.0 °F - 48.2 °F 94% 29.83 in 0.6 mi Calm Calm - N/A   Overcast
7:47 AM 50.0 °F - 48.2 °F 94% 29.84 in 0.6 mi SSW 2.3 mph - N/A   Overcast
7:52 AM 50.0 °F - 48.2 °F 94% 29.83 in 0.6 mi Calm Calm - N/A   Overcast
7:53 AM 50.0 °F - 48.2 °F 94% 29.83 in 0.6 mi Calm Calm - N/A   Overcast
8:00 AM 50 °F - 48 °F 89% 29.85 in 1 mi Calm Calm - -   Overcast
8:00 AM 50.0 °F - 48.2 °F 94% 29.85 in 0.8 mi Calm Calm - N/A   Overcast
8:03 AM 50.0 °F - 48.2 °F 94% 29.83 in 0.8 mi Calm Calm - N/A   Mostly Cloudy
8:09 AM 50.0 °F - 48.2 °F 94% 29.82 in 0.6 mi Calm Calm - N/A   Overcast
8:12 AM 50.0 °F - 48.2 °F 94% 29.82 in 0.6 mi Calm Calm - N/A   Overcast
8:15 AM 50.0 °F - 48.2 °F 94% 29.83 in 0.6 mi Calm Calm - N/A   Overcast
8:18 AM 50.0 °F - 48.2 °F 94% 29.83 in 0.6 mi Calm Calm - N/A Rain Light Rain
8:22 AM 50.0 °F - 48.2 °F 94% 29.83 in 1.0 mi SW 2.3 mph - N/A Rain Light Rain
8:32 AM 50.0 °F - 48.2 °F 94% 29.83 in 1.4 mi South 3.5 mph - N/A   Overcast
8:36 AM 50.0 °F - 48.2 °F 94% 29.84 in 1.4 mi SW 4.6 mph - N/A   Overcast
8:44 AM 50.0 °F - 48.2 °F 94% 29.83 in 1.4 mi SSW 2.3 mph - N/A Rain Light Rain
8:45 AM 50.0 °F - 48.2 °F 94% 29.83 in 1.4 mi Calm Calm - N/A Rain Light Rain
8:47 AM 50.0 °F - 48.2 °F 94% 29.83 in 1.5 mi Calm Calm - N/A Rain Light Rain
8:50 AM 50.0 °F - 48.2 °F 94% 29.83 in 1.4 mi Calm Calm - N/A Rain Light Rain
9:00 AM 50.0 °F - 48.2 °F 94% 29.85 in 1.1 mi Calm Calm - N/A Rain Light Rain
9:10 AM 50.0 °F - 48.2 °F 94% 29.83 in 1.2 mi WNW 2.3 mph - N/A   Overcast
9:25 AM 50.0 °F - 48.2 °F 94% 29.83 in 1.5 mi SSW 2.3 mph - N/A   Overcast
9:32 AM 50.0 °F - 48.2 °F 94% 29.83 in 1.8 mi SW 2.3 mph - N/A Rain Light Rain
9:37 AM 50.0 °F - 48.2 °F 94% 29.82 in 1.8 mi South 2.3 mph - N/A Rain Light Rain
9:51 AM 51.8 °F - 50.0 °F 94% 29.80 in 1.6 mi Calm Calm - N/A Rain Light Rain
9:59 AM 51.8 °F - 50.0 °F 94% 29.81 in 2.5 mi Calm Calm - N/A   Overcast
10:00 AM 51.8 °F - 50.0 °F 94% 29.83 in 2.5 mi Calm Calm - N/A   Overcast
10:04 AM 51.8 °F - 50.0 °F 94% 29.80 in 3.0 mi Calm Calm - N/A   Overcast
10:12 AM 51.8 °F - 50.0 °F 94% 29.81 in 3.0 mi SSW 2.3 mph - N/A Rain Light Rain
10:24 AM 53.6 °F - 50.0 °F 88% 29.80 in 2.5 mi South 3.5 mph - N/A Rain Light Rain
10:32 AM 53.6 °F - 50.0 °F 88% 29.80 in 1.6 mi South 2.3 mph - N/A Rain Light Rain
10:36 AM 53.6 °F - 51.8 °F 94% 29.80 in 1.5 mi South 2.3 mph - N/A Rain Light Rain
10:44 AM 53.6 °F - 51.8 °F 94% 29.79 in 1.5 mi Calm Calm - N/A   Overcast
11:00 AM 53.6 °F - 51.8 °F 94% 29.81 in 2.5 mi South 2.3 mph - N/A   Overcast
11:03 AM 53.6 °F - 51.8 °F 94% 29.79 in 2.5 mi South 2.3 mph - N/A   Overcast
11:33 AM 55.4 °F - 53.6 °F 94% 29.78 in 3.0 mi Calm Calm - N/A   Overcast
11:34 AM 55.4 °F - 53.6 °F 94% 29.78 in 3.0 mi Calm Calm - N/A Rain Light Rain
11:36 AM 55.4 °F - 53.6 °F 94% 29.78 in 3.0 mi Calm Calm - N/A   Overcast
11:48 AM 57.2 °F - 53.6 °F 88% 29.77 in 3.0 mi SE 2.3 mph - N/A Rain Light Rain
11:49 AM 57.2 °F - 53.6 °F 88% 29.77 in 3.0 mi SE 2.3 mph - N/A   Overcast
12:00 PM 59.0 °F - 55.4 °F 88% 29.78 in 3.5 mi Calm Calm - N/A   Mostly Cloudy
1:00 PM 62.6 °F - 59.0 °F 88% 29.73 in 4.0 mi South 11.5 mph - N/A   Overcast
2:00 PM 64 °F - 59 °F 79% 29.71 in 7 mi South 15.0 mph - -   Overcast
2:00 PM 64.4 °F - 59.0 °F 83% 29.71 in 7.0 mi South 16.1 mph 21.9 mph N/A   Overcast
3:00 PM 66.2 °F - 59.0 °F 78% 29.66 in 9.0 mi South 17.3 mph 24.2 mph N/A   Mostly Cloudy
3:04 PM 66.2 °F - 59.0 °F 78% 29.64 in 9.0 mi South 20.7 mph 28.8 mph N/A   Partly Cloudy
4:00 PM 66.2 °F - 57.2 °F 73% 29.65 in 9.0 mi South 16.1 mph 24.2 mph N/A   Mostly Cloudy
5:00 PM 66.2 °F - 57.2 °F 73% 29.63 in 9.0 mi South 15.0 mph - N/A   Overcast
5:43 PM 66.2 °F - 57.2 °F 73% 29.61 in 9.0 mi South 18.4 mph - N/A Rain Light Rain
6:00 PM 66.2 °F - 57.2 °F 73% 29.61 in 9.0 mi South 15.0 mph 20.7 mph N/A Rain Light Rain
6:07 PM 66.2 °F - 57.2 °F 73% 29.60 in 9.0 mi South 17.3 mph - N/A   Scattered Clouds
6:16 PM 66.2 °F - 57.2 °F 73% 29.60 in 9.0 mi South 16.1 mph 21.9 mph N/A Rain Light Rain
6:49 PM 66.2 °F - 57.2 °F 73% 29.58 in 9.0 mi South 17.3 mph - N/A   Partly Cloudy
7:00 PM 66.2 °F - 57.2 °F 73% 29.58 in 9.0 mi South 17.3 mph 28.8 mph N/A Rain Light Rain
7:05 PM 66.2 °F - 57.2 °F 73% 29.57 in 9.0 mi South 19.6 mph - N/A   Partly Cloudy
7:14 PM 66.2 °F - 57.2 °F 73% 29.57 in 9.0 mi South 19.6 mph 27.6 mph N/A   Partly Cloudy
7:22 PM 66.2 °F - 57.2 °F 73% 29.57 in 9.0 mi South 19.6 mph 28.8 mph N/A Rain Light Rain
7:31 PM 66.2 °F - 57.2 °F 73% 29.57 in 9.0 mi South 20.7 mph 34.5 mph N/A   Partly Cloudy
8:00 PM 64 °F - 56 °F 70% 29.57 in 9 mi South 17.3 mph - -  
8:00 PM 64.4 °F - 57.2 °F 77% 29.57 in 9.0 mi South 16.1 mph 24.2 mph N/A   Partly Cloudy
8:39 PM 64.4 °F - 57.2 °F 77% 29.55 in 9.0 mi South 20.7 mph - N/A   Mostly Cloudy
8:55 PM 64.4 °F - 57.2 °F 77% 29.54 in 9.0 mi South 21.9 mph - N/A   Partly Cloudy
9:00 PM 64.4 °F - 57.2 °F 77% 29.55 in 9.0 mi South 20.7 mph 28.8 mph N/A   Partly Cloudy
10:00 PM 64.4 °F - 57.2 °F 77% 29.53 in 9.0 mi South 13.8 mph 19.6 mph N/A   Mostly Cloudy
11:00 PM 62.6 °F - 57.2 °F 82% 29.48 in 9.0 mi South 15.0 mph 21.9 mph N/A   Partly Cloudy